GFSNIL_prec_radar_000.txt.gz
Reflectivity
-20 -20 -20 -20 5 -19 -20 -20 -20 -20 -20 -20 -20 -20 -20 -20 -20 -20 -20 -20 -20 -20
-8 -20 -19 -13 -20 -20 -20 -20 -20 -20 -20 -20 -20 -20 -20 -20 -20 -20 -20 -20 -20 -20
7 -4 -16 -20 -20 -20 -20 -20 -20 -20 -20 -20 -20 -20 -20 -20 -20 -20 -20 -20 -20 -20
1 -17 -20 -19 -20 -20 -20 -20 -20 -20 -20 -20 -20 -20 -20 -20 -20 -20 -20 -20 -20 -9
1 -14 -20 -20 -20 -20 -20 -20 -20 -20 -20 -20 -20 -20 -20 -20 -20 -20 -20 -20 -20 -20
-4 -20 -20 -20 -20 -20 -20 -20 -20 -20 -20 -20 -20 -20 -20 -20 -20 -20 -20 -20 -19 -20
-20 -20 -20 -20 -20 -20 -20 -20 -20 -20 -20 -20 -20 -20 -20 -20 -20 -20 -12 -1 -7 -9
-20 -20 -20 -20 -20 -20 -20 -20 -20 -20 -20 -20 -20 -20 -20 -20 -20 -20 -6 2 1 -8
-20 -20 -20 -20 -20 -20 -20 -20 -20 -20 -20 -20 -20 -20 -20 -20 3 3 5 7 1 5
-20 -20 -20 -20 -20 -20 -20 -20 -20 -20 -20 -20 -20 -20 -20 -20 2 9 8 6 9 2
-20 -20 -20 -20 -20 -20 -20 -20 -20 -20 -20 -20 -20 -20 -20 -6 3 8 6 8 7 8
-20 -20 -20 -20 -20 -20 -20 -20 -20 -20 -20 -10 -20 -20 -20 -6 7 9 5 2 5 -2
-20 -20 -20 -20 -20 -20 -20 -20 -20 -20 -12 -4 3 -20 -20 -11 12 11 8 2 2 -19
-20 -20 -20 -20 -20 -20 -20 -14 4 7 6 3 -4 -5 -20 -20 13 12 8 5 8 11

GFSNIL_prec_radar_003.txt.gz
Reflectivity
-20 -20 -14 -20 -20 -20 -9 -20 -20 -20 -20 -20 -20 -20 -20 -20 -20 -20 -20 -20 -20 -20
-20 -13 -18 -20 -20 -20 -20 -20 -20 -20 -20 -20 -20 -20 -20 -20 -20 -20 -20 -20 -20 -20
0 -17 -11 2 -0 -13 -20 -20 -20 -20 -20 -20 -20 -20 -20 -20 -20 -20 -20 -20 -20 -20
-11 -20 -11 6 8 -9 -20 -20 -20 -20 -20 -20 -20 -20 -20 -20 -20 -20 -20 -20 -20 -20
-7 -20 1 8 -18 -20 -20 -20 -20 -20 -20 -20 -20 -20 -20 -20 -20 -20 -20 -20 -20 -20
-18 -11 8 5 -10 -20 -20 -20 -20 -20 -20 -20 -20 -20 -20 -20 -20 -20 -20 -20 -20 -20
-18 -11 -9 -20 -20 -20 -20 -20 -20 -20 -20 -20 -20 -20 -20 -20 -20 -20 -20 -20 -20 -20
-4 -20 -20 -20 -20 -20 -20 -20 -20 -20 -20 -20 -20 -20 -20 -20 -20 -20 -20 -20 -20 -20
-7 -20 -20 -20 -20 -20 -20 -20 -20 -20 -20 -20 -20 -20 -20 -20 -20 -20 -14 7 -16 -0
-20 -20 -20 -20 -20 -20 -20 -20 -20 -20 -20 -20 -20 -20 -20 -20 -13 6 7 5 9 8
-20 -20 -20 -20 -20 -20 -20 -20 -20 -20 -20 -20 -20 -20 -20 -1 5 5 3 2 7 9
-20 -20 -20 -20 -20 -20 -20 -20 -20 -20 -20 -4 -8 -20 -20 -18 7 8 1 3 5 7
-20 -20 -20 -20 -20 -20 -20 -20 -20 -20 -1 -3 -19 -20 -20 -18 9 10 9 -8 -7 -19
-20 -20 -20 -20 -20 -20 -20 -20 -12 6 4 -20 -19 -2 9 14 12 14 11 9 12 16

GFSNIL_prec_radar_006.txt.gz
Reflectivity
-20 -20 -20 -20 -20 -20 -5 10 -0 -11 5 9 3 10 -16 -20 -20 -20 -20 -20 -20 -20
-20 -20 -20 -20 -20 1 8 11 5 15 13 13 -20 -20 -20 -20 -20 -20 -20 -20 -20 -20
-20 -20 -20 -20 -5 4 -16 1 17 20 16 -16 -20 -20 -20 -20 -20 -20 -20 -20 -20 -20
-20 -20 -20 0 -6 -17 6 15 19 -4 -20 -20 -20 -20 -20 -20 -20 -20 -20 -20 -20 -20
-20 -20 -20 -20 -20 -15 -2 -17 -20 -20 -20 -20 -20 -20 -20 -20 -20 -20 -20 -20 -20 -20
-20 -20 -20 -20 -20 -18 -6 -20 -20 -20 -20 -20 -20 -20 -20 -20 -20 -20 -20 -20 -20 -20
-20 -20 -20 -20 -20 -20 -18 -20 -20 -20 -20 -20 -20 -20 -20 -20 -20 -20 -20 -20 -20 -20
-20 -20 -15 -12 -20 -20 -20 -20 -20 -20 -20 -20 -20 -20 -20 -20 -20 -20 -20 -20 -20 -20
21 -19 -20 -19 -20 -20 -20 -20 -20 -20 -20 -20 -20 -20 -20 -20 -20 -20 -20 -20 -20 -20
23 8 -15 -20 -20 -20 -20 -20 -20 -20 -20 -20 -20 -20 -20 -20 -20 -20 -20 -20 -20 -18
-11 -20 -20 -20 -20 -20 -20 -20 -20 -20 -20 -20 -20 -20 -20 -20 -20 -20 -20 -20 -20 -20
-20 -20 -20 -20 -20 -20 -20 -20 -20 -20 -20 -20 -20 -20 -20 -20 -20 -20 -20 -20 -20 -20
-20 -20 -20 -20 -20 -20 -20 -20 -20 -20 -20 -20 -20 -20 -20 -17 7 8 6 -19 -7 -5
-20 -20 -20 -20 -20 -20 -20 -20 -20 -20 -20 -20 -14 -13 8 10 5 11 2 5 -11 -20

GFSNIL_prec_radar_009.txt.gz
Reflectivity
-20 -20 -20 -20 -20 -20 -15 -3 11 9 14 16 11 12 19 30 -17 -19 -20 -20 -20 -20
-20 -20 -20 -20 -20 -19 -17 -13 -16 -17 7 13 21 24 -13 -8 -20 -20 -20 -20 -20 -20
-20 -20 -20 -20 -20 1 10 -1 -5 23 30 10 -7 9 6 -16 -20 -20 -20 -20 -20 -20
-20 -20 -20 -20 -9 5 -7 25 6 9 -2 -3 -12 -20 -20 -20 -20 -20 -20 -20 -20 -20
-20 -20 -20 -20 -20 -17 13 -13 3 -18 -20 -20 -20 -20 -20 -20 -20 -20 -20 -20 -20 -20
-20 -20 -20 -20 -20 -20 -20 -20 -20 -20 -20 -20 -20 -20 -20 -20 -20 -20 -20 -20 -20 -20
-20 -20 -20 -20 -20 -20 -20 -20 -20 -20 -20 -20 -20 -20 -20 -20 -20 -20 -20 -20 -20 -20
-20 -20 -20 -20 -20 -6 -20 -20 -20 -20 -20 -20 -20 -20 -20 -20 -20 -20 -20 -20 -20 -20
1 -20 -18 18 6 8 -5 -20 -20 -20 -20 -20 -20 -20 -20 -20 -20 -20 -20 -20 -20 -20
1 23 25 14 -4 -20 -20 -20 -20 -20 -20 -20 -20 -20 -20 -20 -20 -20 -20 -20 -20 -20
-13 -4 -19 -20 -20 -20 -20 -20 -20 -20 -20 -20 -20 -20 -20 -20 -20 -20 -20 -20 -20 -20
-20 -20 -20 -20 -20 -20 -20 -20 -20 -20 -20 -20 -20 -20 -20 -20 -20 -20 -20 -20 -20 -8
-20 -20 -20 -20 -20 -20 -20 -20 -20 -20 -20 -20 -20 -20 -20 1 2 -19 -18 -20 -20 -20
-20 -20 -20 -20 -20 -20 -20 -20 -20 -20 -20 -20 -20 -20 -17 0 -5 4 -2 -20 -19 -20

GFSNIL_prec_radar_012.txt.gz
Reflectivity
-20 -20 -20 -20 -20 -20 -20 -19 -20 -16 7 -20 7 27 22 8 22 29 26 -11 -20 -20
-20 -20 -20 -20 -20 -20 -20 -20 -15 -19 4 24 28 27 35 22 -11 -6 -12 -20 -20 -20
-20 -20 -20 -20 -20 -20 -20 -17 6 7 25 34 33 14 8 -2 -20 -20 -20 -20 -20 -20
-20 -20 -20 -20 -20 -20 -20 -18 3 32 17 7 7 1 -3 -19 -20 -20 -20 -20 -20 -20
-20 -20 -20 -20 -20 -20 -20 -20 -19 -19 -20 -15 -20 -20 -20 -20 -20 -20 -20 -20 -20 -20
-20 -20 -20 -20 -20 -17 -17 -20 -20 -20 -20 -20 -20 -20 -20 -20 -20 -20 -20 -20 -20 -20
-20 -20 -20 -20 -20 -20 -20 -20 -20 -20 -20 -20 -20 -20 -20 -20 -20 -20 -20 -20 -20 -20
-20 -20 -16 -19 -20 -19 0 -19 -20 -20 -20 -20 -20 -20 -20 -20 -20 -20 -20 -20 -20 -20
29 21 19 27 20 9 7 -12 -5 -20 -20 -20 -20 -20 -20 -20 -20 -20 -20 -20 -20 -20
29 25 9 3 -2 -4 -6 -15 -20 -20 -20 -20 -20 -20 -20 -20 -20 -20 -20 -20 -20 -20
-20 -20 -20 -20 -20 -20 -20 -20 -20 -20 -20 -20 -20 -20 -20 -20 -20 -20 -20 -20 -20 -20
-20 -20 -20 -20 -20 -20 -20 -20 -20 -20 -20 -20 -20 -20 -20 -20 -20 -20 -20 -20 -20 -15
-20 -20 -20 -20 -20 -20 -20 -20 -20 -20 -20 -20 -20 -20 -20 -19 -5 -20 -20 -20 -20 -20
-20 -20 -20 -20 -20 -20 -20 -20 -20 -20 -20 -20 -20 -20 -20 -2 -5 -20 -17 -20 -20 -20

GFSNIL_prec_radar_015.txt.gz
Reflectivity
-20 -20 -20 -20 -20 -20 -20 -20 -20 -20 -20 -20 11 -11 19 26 20 34 38 33 27 8
-20 -20 -20 -20 -20 -20 -20 -20 -20 -20 -20 -20 -19 21 28 29 27 20 19 15 13 -16
-20 -20 -20 -20 -20 -20 -20 -20 -20 -20 -6 12 22 32 31 23 16 12 2 -12 -20 -20
-20 -20 -20 -20 -20 -20 -20 -20 -20 -20 -2 27 20 7 0 1 4 1 -15 -20 -20 -20
-20 -20 -20 -20 -20 -20 -17 -20 -20 -20 -20 -20 -20 -20 -20 -20 -20 -20 -20 -20 -20 -20
-20 -20 -20 -20 -20 -20 -10 8 3 -20 -20 -20 -20 -20 -20 -20 -20 -20 -20 -20 -20 -20
-20 -20 -20 -18 -20 -19 1 -7 -15 0 -13 -20 -20 -20 -20 -20 -20 -20 -20 -20 -20 -20
-20 -2 -10 -6 7 16 16 12 -2 -20 -20 -20 -20 -20 -20 -20 -20 -20 -20 -20 -20 -20
8 32 34 32 27 17 14 19 13 6 -17 -20 -20 -20 -20 -20 -20 -20 -20 -20 -20 -20
-8 -20 -20 -20 -13 -20 -20 -20 -20 -20 -20 -20 -20 -20 -20 -20 -20 -20 -20 -20 -20 -20
-20 -20 -20 -20 -20 -20 -20 -20 -20 -20 -20 -20 -20 -20 -20 -20 -20 -20 -20 -20 -20 -20
-20 -20 -18 -20 -20 -20 -20 -20 -20 -20 -20 -20 -20 -20 -20 -20 -20 -20 -20 -20 -20 -20
-20 -20 -20 -20 -20 -20 -20 -20 -20 -20 -20 -20 -20 -20 -20 -20 -20 -20 -20 -20 -20 -20
-20 -20 -20 -20 -20 -20 -20 -20 -20 -20 -20 -20 -20 -20 -20 -20 -20 -20 -20 -20 -20 -20

GFSNIL_prec_radar_018.txt.gz
Reflectivity
-20 -20 -20 -20 -20 -20 -20 -20 -20 -20 -20 -20 -20 -20 -20 -20 -13 20 33 31 39 36
-20 -20 -20 -20 -20 -20 -20 -20 -20 -20 -20 -20 -20 -20 -14 20 32 33 35 32 32 30
-20 -20 -20 -20 -20 -20 -20 -20 -20 -20 -20 -20 -20 -19 11 18 12 9 13 13 15 11
-20 -20 -20 -20 -20 -20 -20 -20 -20 -20 -20 -20 6 -16 -20 -20 -20 -14 -2 0 -10 -17
-20 -20 -20 -20 -20 -20 -20 -20 -20 3 17 15 4 -20 -20 -20 -20 -20 -20 -20 -20 -20
-20 -20 -20 -20 -20 -20 -19 -20 -16 19 2 -12 -12 -20 -20 -20 -20 -20 -20 -20 -20 -20
-20 -20 -9 -19 -16 -16 7 20 22 11 -15 -13 -20 -20 -20 -20 -20 -20 -20 -20 -20 -20
-20 -20 -15 -20 -19 16 13 -1 -12 -7 -5 2 3 -0 -20 -20 -20 -20 -20 -20 -20 -20
-20 -10 -20 -20 -20 -20 -8 5 -1 -20 -20 -20 -20 -20 -20 -20 -20 -20 -20 -20 -20 -20
13 15 -6 3 -20 -20 -20 -20 -20 -20 -20 -20 -20 -20 -20 -20 -20 -20 -20 -20 -20 -20
-19 -20 -20 -20 -20 -20 -20 -20 -20 -20 -20 -20 -20 -20 -20 -20 -20 -20 -20 -20 -20 -20
-20 -20 -20 -20 -20 -20 -20 -20 -20 -20 -20 -20 -20 -20 -20 -20 -20 -20 -20 -20 -20 -20
-20 -20 -20 -20 -20 -20 -20 -20 -20 -20 -20 -20 -20 -20 -20 -20 -20 -13 -10 -20 -20 -20
-20 -20 -20 -20 -20 -20 -20 -20 -20 -20 -20 -20 -20 -20 -20 -20 -3 -20 -19 -13 -20 -20

GFSNIL_prec_radar_021.txt.gz
Reflectivity
-20 -20 -20 -20 -20 -20 -20 -20 -20 -20 -20 -20 -20 -20 -20 -20 -1 4 18 22 29 30
-20 -20 -20 -20 -20 -20 -20 -20 -20 -20 -20 -20 -19 -10 -9 -5 19 28 25 23 27 30
-20 -20 -20 -20 -20 -20 -20 -20 -20 -20 -14 -19 -20 -6 -4 -19 -20 -3 1 -1 9 17
-20 -20 -20 -20 -20 -20 -20 -20 -17 -19 -20 -17 11 25 18 9 4 -2 -20 -20 -20 -20
-20 -20 -20 -20 -20 -20 -20 -20 5 -1 27 29 27 24 -8 -20 -20 -20 -20 -20 -17 -20
-20 -20 -20 -20 -20 -20 -2 2 23 27 14 -5 -20 -20 -20 -20 -20 -20 -20 -20 -20 -20
-20 -20 -20 -20 -20 -20 -19 -16 -20 -19 -19 -19 -19 -20 -20 -20 -20 -20 -20 -20 -20 -20
-20 -20 -20 -20 -20 -20 -20 -20 -20 -17 -18 -19 -18 -20 -20 -20 -20 -20 -20 -20 -20 -20
-12 27 26 22 -20 -20 -20 -20 -20 -20 -20 -20 -20 -20 -20 -20 -20 -20 -20 -20 -20 -20
-20 -20 -20 -20 -20 -20 -20 -20 -20 -20 -20 -20 -20 -20 -20 -20 -20 -20 -20 -6 -20 -20
-20 -20 -20 -20 -20 -20 -20 -20 -20 -20 -20 -20 -20 -20 -20 -20 -20 -10 -20 -20 -10 -0
-20 -20 -20 -20 -20 -20 -20 -20 -20 -20 -20 -20 -20 -20 -20 -9 2 2 -10 -3 -0 -3
-20 -20 -20 -20 -20 -20 -20 -20 -20 -20 -20 -20 -20 -20 -20 -19 2 5 1 2 2 -9
-20 -20 -20 -20 -20 -20 -20 -20 -20 -20 -20 -20 -20 -20 -20 -20 5 5 9 7 2 6

GFSNIL_prec_radar_024.txt.gz
Reflectivity
-20 -20 -20 -20 -20 -20 -20 -20 -20 -20 -20 -20 -20 -16 0 11 -20 -10 -4 2 13 17
-20 -20 -20 -20 -20 -20 -20 -20 -20 0 -11 3 -17 -8 1 8 9 3 5 6 6 12
-20 -20 -20 -20 -20 -20 -20 -16 -4 -7 -11 -20 -15 -11 15 14 24 19 14 11 10 8
-20 -20 -20 -20 -20 -20 -8 -20 -20 -13 -11 -3 6 6 11 17 14 9 2 -8 -18 -20
-20 -20 -20 -20 -20 -17 6 7 -1 -1 6 -1 2 8 14 11 -19 -19 -19 -20 -20 -20
-20 -20 -18 -0 -3 -5 1 9 5 11 12 -3 -20 -20 -20 -20 -20 -20 -20 -20 -20 -20
-10 -20 8 10 7 17 18 17 16 14 5 5 -20 -20 -20 -20 -20 -20 -20 -20 -20 -20
13 -9 13 20 11 18 13 9 8 -7 -20 -20 -20 -20 -20 -20 -20 -20 -20 -20 -20 -20
1 6 10 10 7 -11 -20 -20 -20 -20 -20 -20 -20 -20 -20 -20 -20 -20 -20 -20 -20 -20
-20 -20 -20 -18 -20 -20 -20 -20 -20 -20 -20 -20 -20 -20 -20 -20 -20 -20 -20 -20 -20 -20
-20 -20 -20 -20 -20 -20 -20 -20 -20 -20 -20 -20 -20 -20 -20 -20 -20 -20 -14 -2 -20 -5
-19 -20 -20 -20 -20 -20 -20 -20 -20 -20 -20 -20 -20 -20 -20 -20 -8 -1 -2 -2 -1 4
-20 -20 -20 -20 -20 -20 -20 -20 -20 -20 -20 -20 -20 -20 -1 -3 2 7 7 2 4 -18
-20 -20 -20 -20 -20 -20 -20 -15 -5 7 1 4 3 3 5 2 -4 12 10 7 6 9

GFSNIL_prec_radar_027.txt.gz
Reflectivity
-20 -20 -20 -20 -20 -20 -20 -20 -20 -20 -20 -13 -4 7 15 22 9 -20 -14 -20 -3 6
-20 -20 -20 -20 -20 -20 -20 -20 -20 -20 -20 -20 1 -20 -20 9 14 27 13 16 17 12
-20 -20 -20 -20 -20 -20 -16 -20 -20 -20 -20 -20 -20 -20 -16 -11 -0 12 23 21 22 18
-20 -20 -20 -20 -20 -18 -9 -20 -7 0 -20 -20 -9 -0 5 10 -1 0 -1 -13 8 -1
-20 -20 -20 -20 -20 -20 -5 2 3 1 8 15 18 -20 -18 3 -20 -20 -20 -2 -19 -20
-20 -20 -20 -19 -9 -16 -2 4 16 16 18 -19 -20 -20 -20 -20 -20 -20 -20 -20 -20 -20
-20 6 -3 5 -20 17 12 9 13 13 -9 -20 -20 -20 -20 -20 -20 -20 -20 -20 -20 -20
-20 4 6 3 -2 4 -10 -15 -20 -20 -20 -20 -20 -20 -20 -20 -20 -20 -20 -20 -20 -20
-20 -20 -20 -20 -20 -20 -20 -20 -20 -20 -20 -20 -20 -20 -20 -20 -20 -20 -20 -20 -20 -20
-20 -20 -20 -20 -20 -20 -20 -20 -20 -20 -20 -20 -20 -20 -20 -20 -20 -20 -20 -15 -4 -20
-20 -8 -20 -20 -18 -20 -20 -20 -20 -13 -20 -20 -10 -14 -20 -20 -20 -20 -8 -8 -7 -12
-6 -20 -20 -20 -20 -20 -20 -20 -0 -20 -18 -20 -1 -20 -20 -20 -4 1 -0 -3 7 10
-16 -14 -20 -20 -20 -20 -20 -20 -20 -20 -20 -7 -3 5 -20 -20 2 7 9 6 4 4
-16 -17 -20 -20 -20 -20 -20 -15 -11 -20 -20 4 9 10 7 -3 8 1 16 11 10 6

GFSNIL_prec_radar_030.txt.gz
Reflectivity
-20 -20 -20 -20 -20 -20 -20 -20 -20 -20 -20 -20 -20 -20 -20 -1 -12 -20 -17 -20 -20 -7
-20 -20 -20 -20 -20 -20 -20 -20 -20 -20 -20 -20 -20 -20 -20 -20 -20 -18 -20 10 18 21
-20 -20 -20 -20 -20 -20 -20 -20 -20 -20 -13 -19 -20 -20 -20 -20 -19 -0 -20 -20 -20 -19
-20 -20 -20 -20 -20 -20 -20 -20 -20 -0 -20 -20 3 9 10 18 7 13 12 9 10 13
-20 -20 -20 -20 -20 -20 -7 -20 8 -19 -3 -19 -19 -20 -20 -20 1 -10 8 -20 -20 -20
-20 -20 -20 -20 -20 -20 -20 -5 -20 -20 -20 -14 -19 -8 -20 -20 -20 -20 -20 -20 -20 -20
-20 -20 -20 -20 -20 -20 -20 -6 7 -9 -20 -20 -20 -20 -20 -20 -20 -20 -20 -20 -20 -20
-20 -20 -20 -20 -2 -14 -18 -20 -20 -20 -20 -20 -20 -20 -20 -20 -20 -20 -20 -20 -20 -20
-9 -20 -20 -20 -20 -20 5 4 -20 -20 -20 -20 -20 -20 -20 -20 -20 -20 -20 -20 -20 -20
-12 -20 -20 -20 -4 -20 -11 -20 -20 -20 -20 -20 -20 -20 -20 -20 -20 -20 -20 -20 -20 -20
-20 -20 -20 -20 -15 -20 -20 -20 -20 -20 -20 -20 -20 -20 -20 -20 -20 -20 -20 -15 -20 -20
20 -20 -20 -20 -17 -20 -20 -20 -20 -20 -20 -20 -20 -20 -10 -20 -20 -20 -20 -20 -20 7
23 23 -19 -20 -20 -20 -20 -20 -20 -20 -20 -20 -20 -10 7 10 -17 -20 -19 -20 -20 -20
-20 29 6 -20 -20 -20 -20 -20 -20 -20 -20 -20 -19 -20 8 -20 -20 -6 0 -11 -16 -20

GFSNIL_prec_radar_033.txt.gz
Reflectivity
-20 -20 -20 -20 -20 -20 -20 -20 -20 -20 -20 -20 -20 -20 -20 -20 -20 -20 -20 -20 -20 14
-20 -20 -20 -20 -20 -20 -20 -20 -20 -20 -20 -20 -20 -20 -20 -20 -20 -20 -20 -20 -20 -20
-20 -20 -20 -20 -20 -20 -20 -20 -20 -20 -20 -20 -20 -16 -20 -20 -20 -20 -20 -20 -20 -10
-20 -20 -20 -20 -20 -20 -20 -20 -20 -20 -20 -20 15 -7 1 6 5 7 -11 -20 -20 -20
-20 -20 -20 -20 -20 -20 -20 -20 -20 -20 -1 -15 21 16 3 2 -20 -20 -20 -20 -20 -20
-20 -20 -20 -20 -20 -20 -20 -20 -20 -1 -6 -20 -19 -20 -20 -20 -20 -20 -20 -20 -20 -20
-20 -20 -20 -20 -20 -20 -20 -20 -20 -20 -15 -20 -20 -20 -20 -20 -20 -20 -20 -20 -20 -20
-20 -20 -20 -20 -20 -20 -20 -20 -20 -20 -20 -20 -20 -20 -20 -20 -20 -20 -20 -20 -20 -20
-17 -2 17 -20 -20 -20 -20 -20 -20 -20 -20 -20 -20 -20 -20 -20 -20 -20 -20 -20 -20 -20
-7 -6 -17 -5 11 1 -11 -20 -20 -20 -20 -20 -20 -20 -20 -20 -20 -20 -20 -20 -20 -20
-3 -13 -14 37 3 -20 -20 -20 -20 -20 -20 -20 -20 -20 -20 -20 -20 -20 -20 -20 -20 -20
-20 -13 30 22 25 11 -1 -20 -20 -20 -20 -20 -20 -20 -20 -20 -20 -20 -20 -20 -20 -20
-20 -19 39 30 8 -20 -20 -20 -20 -20 -20 -20 -20 -20 -9 -20 -20 -20 -20 -20 -20 -20
-16 -9 24 22 -17 -20 -20 -20 -20 -20 -20 -20 -20 -20 -20 -2 -20 -20 -20 -20 -15 -20

GFSNIL_prec_radar_036.txt.gz
Reflectivity
-20 -20 -20 -20 -20 -20 -20 -20 -20 -20 -20 -20 -20 -20 -20 -20 -20 -20 -20 -20 -20 -20
-20 -20 -20 -20 -20 -20 -20 -20 -20 -20 -20 -20 -20 -20 -20 -20 -20 -20 -20 -20 -20 -20
-20 -20 -20 -20 -20 -20 -20 -20 -20 -20 -20 -20 -20 -20 -20 -20 -20 -20 4 15 -20 -9
-20 -20 -20 -20 -20 -20 -20 -20 -20 -20 -20 -20 -20 -20 -20 -20 -20 -20 -20 -20 -20 -20
-20 -20 -20 -20 -20 -20 -20 -20 -20 -20 -20 -20 -20 -20 -20 -20 -20 -20 -20 -20 -20 -20
-20 -20 -20 -20 -20 -20 -20 -20 -20 -20 -20 -20 -20 -20 -20 -20 -20 -20 -20 -20 -20 -20
-20 -20 -20 -20 -20 -20 -18 -18 -20 -17 -20 -20 -20 -20 -20 -20 -20 -20 -20 -20 -20 -20
-20 -20 -20 -20 -20 1 28 -10 13 8 -20 -20 -20 -20 -20 -20 -20 -20 -20 -20 -20 -20
-20 -20 -20 4 14 -20 -10 28 1 -20 -20 -19 -20 -20 -20 -20 -20 -20 -20 -20 -20 -20
-20 -20 -20 -20 -20 -20 31 28 12 -20 -20 -20 -20 -20 -20 -20 -20 -20 -20 -20 -20 -20
-20 -20 -20 -20 -20 6 35 27 5 -20 -20 -20 -20 -20 -20 -20 -20 -20 -20 -20 -20 -20
-20 -20 -20 -20 -20 -19 -17 -20 -20 -20 -20 -20 -20 -20 -14 -20 -20 -20 -20 -20 -20 -20
-20 -20 -20 -20 -20 -20 -20 -17 -19 -20 -20 -20 -20 -20 -20 -20 -20 -20 -19 -18 -20 -20
-20 -20 -16 2 -20 -20 -17 -16 -20 -20 -20 -20 -20 -20 -20 -20 -20 -20 -6 -20 -20 -20

GFSNIL_prec_radar_039.txt.gz
Reflectivity
-20 -20 -20 -20 -20 -20 -20 -20 -20 -20 -20 -20 -20 -20 -20 -20 -20 -20 -20 -20 -20 -20
-20 -20 -20 -20 -20 -20 -20 -20 -20 -20 -20 -20 -20 -20 -20 -20 -20 -20 -20 -20 -20 2
-20 -20 -20 -20 -20 -20 -20 -20 -20 -20 -20 -20 -20 -20 -20 -20 -20 -20 -20 -20 -20 -20
-20 -20 -20 -20 -20 -20 -20 -20 -20 -20 -20 -20 -20 -20 -20 -20 -20 -20 -20 -20 -20 -20
-20 -20 -20 -20 -20 -20 -20 -20 -20 -20 -20 2 -20 -9 -20 -20 -20 -20 -20 -20 -20 -20
-20 -20 -20 -20 -20 -20 -20 -20 -20 -20 -20 -8 -4 -13 -20 -20 -20 -20 -20 -20 -20 -20
-20 -20 -20 -20 -20 -20 -20 -20 -20 -18 12 -2 -7 -20 -20 -20 -20 -20 -20 -20 -20 -20
-20 -20 -20 -20 -20 -20 -14 -20 -20 21 9 -13 -20 -20 -20 -20 -20 -20 -20 -20 -20 -20
-20 -20 -20 -20 -20 -20 -20 -20 -20 33 -4 -6 -3 -20 -20 -20 -20 -20 -20 -20 -20 -20
-20 -20 -20 -20 -20 -20 -20 -20 -18 16 -16 -15 -20 -20 -20 -20 -20 -20 -20 -20 -20 -20
-20 -20 -20 -20 -20 -20 -14 -20 -20 -20 -20 -20 -20 -20 -20 -20 -20 -20 -20 -20 -20 -20
-20 -20 -20 -20 -20 -20 -10 -20 -20 -20 -19 -20 -20 -20 -20 -20 -20 -20 -20 -20 -20 -19
-20 -20 -20 -20 -20 -20 -20 -20 -20 -20 -20 -20 -20 -20 -20 -20 -20 -20 -20 -20 -20 -20
-20 -20 -20 -20 -20 -20 -20 -13 -20 -20 -20 -20 -20 -20 -20 -20 -20 -20 -20 -20 -20 -20

GFSNIL_prec_radar_042.txt.gz
Reflectivity
-20 -20 -20 -20 -20 -20 -20 -20 -20 -20 -20 -20 -20 -20 -20 -20 -20 -20 -20 -20 -20 -20
-20 -20 -20 -20 -20 -20 -20 -20 -20 -20 -20 -20 -20 -20 -20 -20 -20 -20 -20 -20 -20 -20
-20 -20 -20 -20 -20 -20 -20 -20 -20 -20 -20 -20 -20 -20 -20 -20 -20 -20 -20 -20 -20 -20
-20 -20 -20 -20 -20 -20 -20 -20 -20 -20 -20 -20 -20 -20 -20 -20 -20 -20 -20 -20 -20 -20
-20 -20 -20 -20 -20 -20 -20 -20 -20 -20 -20 -20 -20 -20 -20 -20 -20 -20 -20 -20 -20 -20
-20 -20 -20 -20 -20 -20 -20 -20 -20 -20 -20 -10 -18 -20 -20 -20 -20 -20 -20 -20 -20 -20
-20 -20 -20 -20 -20 -20 -20 -20 -20 -20 13 11 21 -6 -20 -20 -20 -20 -20 -20 -20 -20
-20 -20 -20 -20 -20 -20 -20 -20 -20 -20 -20 27 18 -20 -20 -20 -20 -20 -20 -20 -20 -20
-20 -20 -20 -20 -20 -20 -20 -20 -20 -20 -20 -20 -20 -20 -20 -20 -20 -20 -20 -20 -20 -20
-20 -20 -20 -20 -20 -20 -20 -20 -20 -20 -20 -20 -20 -20 -20 -20 -20 -20 -20 -20 -20 -20
-20 -20 -20 -20 -20 -20 -20 -20 -20 -20 -20 -20 -20 -20 -20 -20 -20 -20 -20 -20 -20 -20
-20 -20 -20 -20 -20 -20 -20 -20 -20 -20 -20 -20 -20 -20 -20 -20 -20 -20 -20 -20 -20 -20
-20 -20 -20 -20 -20 -20 -20 -20 -20 -20 -20 -20 -20 -20 -20 -20 -20 -20 -20 -20 -20 -20
-20 -20 -20 -20 -20 -20 -20 -15 -12 -20 -20 -20 -20 -20 -20 -20 -20 -20 -15 -20 -20 -20

GFSNIL_prec_radar_045.txt.gz
Reflectivity
-20 -20 -20 -20 -20 -20 -20 -20 -20 -20 -20 -20 -20 -20 -20 -20 -20 -20 -20 -20 -20 -20
-20 -20 -20 -20 -20 -20 -20 -20 -20 -20 -20 -20 -20 -20 -20 -15 14 22 21 13 19 -20
-20 -20 -20 -20 -20 -20 -20 -20 -20 -20 -20 -20 -20 -20 3 21 -3 22 20 4 -20 -20
-20 -20 -20 -20 -20 -20 -20 -20 -20 -20 0 -20 -20 -20 -20 -20 -10 -20 -20 -20 -20 -20
-20 -20 -20 -20 -20 -20 -20 -20 -20 -20 -20 -20 -20 17 -10 5 -20 -20 -20 -20 -20 -20
-20 -20 -20 -20 -20 -20 -20 -20 -20 -20 -20 -20 -20 -20 -5 8 -20 -20 -20 -20 -20 -20
-20 -20 -20 -20 -20 -20 -20 -20 -20 -20 -20 -18 -19 -7 26 -8 -20 -20 -20 -20 -20 -20
-20 -20 -20 -20 -20 -20 -20 -20 -20 -6 -20 -20 -20 -20 -20 -20 -20 -20 -20 -20 -20 -20
-20 -20 -20 -20 -20 -20 -20 -20 -20 -20 -20 -20 -20 -20 -20 -20 -20 -20 -20 -20 -20 -20
-20 -20 -20 -20 -20 -20 -20 -20 -20 -20 -20 -20 -20 -20 -20 -20 -20 -20 -20 -20 -20 -20
-20 -20 -20 -20 -20 -20 -20 1 -11 -20 -20 -20 -20 -20 -20 -20 -20 -20 -20 -20 -20 -20
-20 -20 -20 -20 -20 -20 -15 -20 -20 -20 -20 -20 -20 -20 -20 -20 -20 -20 -20 -20 -20 -20
-20 -20 -20 -20 -20 -20 -20 -20 -20 -20 -20 -20 -20 -20 -20 -20 -20 -20 -19 -20 -20 -14
-20 -13 -20 -20 -20 -20 -20 -17 -15 -10 -20 -20 -20 -20 -20 -20 -20 -0 -0 -19 -20 -20

GFSNIL_prec_radar_048.txt.gz
Reflectivity
-20 -20 -20 -20 -20 -20 -20 -20 -20 -20 -20 -20 10 16 -2 -20 -10 14 17 17 12 16
-20 -20 -20 -20 -20 -20 -20 -20 -20 -20 -4 -20 -20 -6 13 16 15 11 17 15 20 15
1 -20 -20 -20 -20 -20 -20 -20 -20 -20 -20 -20 -20 6 11 14 -9 18 18 3 -20 -20
-20 -20 -20 -20 -20 -20 -20 -20 -20 -20 -20 -20 -20 7 13 19 17 -15 -1 -20 -20 -20
-20 -20 -20 -20 -20 -20 -20 -20 -20 -20 -20 -20 3 3 -19 -19 -1 -20 9 -20 -20 -20
-20 -20 -20 -20 -20 -20 -20 -20 -20 -20 -20 -0 6 8 4 -3 2 -8 -2 -20 -20 -20
-20 -20 -20 -20 -20 -20 -20 -20 -20 -20 -4 -17 -20 -14 -20 -20 -20 -20 -20 -10 1 -20
-20 -20 -20 -20 -20 -20 -20 -20 -20 -10 1 -16 0 -2 -4 -12 -0 3 2 -16 -20 -20
-20 -20 -20 -20 -20 -20 -20 -20 4 -20 0 2 2 -20 -20 -20 -20 -20 -20 -20 -20 -20
-20 -20 -20 -20 -20 -14 -6 -5 3 -2 -9 9 10 -20 -20 -20 -20 -20 -20 -20 -20 -20
-20 -20 -20 -20 -20 -0 -10 -2 -10 -14 -0 10 -20 -20 -20 -20 -20 -20 -20 -20 -20 -20
-20 -20 -20 -20 -20 -20 -20 -10 1 -20 12 -19 -20 -20 -20 -20 -20 -20 -20 -20 -20 -20
-20 -20 -20 -20 -20 -9 -8 -17 -0 0 -20 -20 -20 -20 -20 -20 -18 -9 0 -20 -20 -20
-20 -20 -20 -20 -2 -20 -20 -10 -6 -3 1 -20 -8 -20 -20 -20 -18 1 -1 -2 -20 -20

GFSNIL_prec_radar_051.txt.gz
Reflectivity
-20 -20 -20 -10 -19 -20 -20 -20 -20 -20 -20 -20 -20 -20 -20 -20 18 8 -4 -15 17 16
-20 -20 -12 -20 -20 -20 -20 -20 -20 -20 -20 -20 -20 -20 -20 -20 15 17 11 12 17 -18
-20 -20 -20 -20 -20 -20 -20 -20 -20 -20 -20 -20 -20 -20 -20 -20 -8 19 7 13 5 -7
-14 -16 -20 -20 -20 -20 -20 -20 -20 -20 -20 -20 -20 -20 -15 -20 18 -14 -1 -20 9 -1
-19 -20 -20 -20 -20 -20 -20 -20 -20 -20 -20 -20 -20 -20 -20 -20 4 -20 -20 5 6 -20
-20 -20 -20 -20 -20 -20 -20 -20 -20 -20 -20 -20 -19 -20 -20 -10 -4 -1 4 -15 1 -11
-20 -20 -20 -20 -20 -20 -20 -20 -20 -20 -20 -20 -19 -0 -2 -12 -19 -20 5 7 -17 -8
-20 -20 -20 -20 -20 -20 -20 -20 -20 -20 -20 -9 -20 -9 -20 3 2 2 -7 -5 -20 -20
-20 -20 -20 -20 -20 -20 -20 -20 -20 -20 -20 2 -20 -20 -20 -20 -20 -20 -20 -20 -20 -20
-20 -20 -20 -20 -20 -20 -20 -20 -20 -20 -20 3 -4 -8 -20 -20 -20 -20 -20 -20 -20 -20
-20 -20 -20 -20 -20 -20 -20 -20 -20 3 8 -20 19 -18 -20 -20 -20 -20 -20 -20 -20 -20
-20 -20 -20 -20 -20 -20 -20 -20 -20 -5 7 10 14 -20 -20 -20 -20 -8 -20 -20 -20 -20
-20 -20 -20 -20 -20 -20 -20 -20 -20 -20 -10 -8 11 -20 -20 -20 -20 4 -10 -9 -20 -19
-20 -20 -20 -20 -20 -20 -20 -20 -20 -5 -7 8 2 6 -20 -20 -20 -1 -0 -10 -13 -6

GFSNIL_prec_radar_054.txt.gz
Reflectivity
-20 -20 -20 -20 -19 -12 -20 -20 -20 -20 -20 -20 -20 -20 -20 -20 -20 -20 -11 -20 -18 -9
-20 -20 7 -10 -20 -20 -20 -20 -20 -20 -20 -20 -20 -20 -20 -20 -20 -20 -20 -20 -19 1
-20 -19 22 -16 -20 -20 -20 -20 -20 -20 -20 -20 -20 -20 -20 -20 -20 -20 -20 -13 8 -20
-20 24 0 -20 -20 -20 -20 -20 -20 -20 -20 -20 -20 -20 -20 -20 -20 -20 -20 -20 -20 -20
-15 -14 -20 -20 -20 -20 -20 -20 -20 -20 -20 -20 -20 -20 -20 -20 -20 -20 -20 -20 -20 -20
-4 -20 -20 -20 -20 -20 -20 -20 -20 -20 -20 -20 -20 -20 -20 -20 -20 -20 -20 -3 -17 -20
-20 -20 -20 -20 -20 -20 -20 -20 -20 -20 -20 -20 -20 -20 -20 -20 -20 -20 -20 -20 -6 -12
-20 -20 -20 -20 -20 -20 -20 -20 -20 -20 -20 -20 -20 -16 -20 -20 -20 -20 -4 1 -20 -20
-20 -20 -20 -20 -20 -20 -20 -20 -20 -20 -20 -20 -20 -20 -20 -19 -20 -20 -20 -20 -20 -20
-11 -20 -20 -20 -20 -18 -20 -20 -20 -20 -20 -20 -20 -20 -19 11 -16 -20 -20 -20 -20 -20
11 0 -20 -10 -7 -15 -20 -20 -20 -20 -20 -20 -20 -20 -18 3 -19 -20 -20 -20 -20 -20
8 14 8 -1 -17 -20 -20 -20 -20 -20 -20 -20 -20 -20 -20 -20 -20 -20 -20 -20 -20 -20
15 4 -4 -11 -20 -20 -20 -20 -20 -20 -20 -20 -20 -20 -20 -20 -20 -20 -20 -20 -20 -20
-6 -2 -20 -20 -20 -20 -20 -12 -20 -20 -20 -20 -20 -12 -20 -20 -20 -20 -20 -20 -20 -20

GFSNIL_prec_radar_057.txt.gz
Reflectivity
-20 -20 -20 -9 -17 -20 12 -20 -20 -20 -20 -20 -20 -20 -20 -20 -20 -20 -20 -20 -20 -20
-20 -20 -20 -20 -20 7 23 -20 -20 -20 -20 -20 -20 -20 -20 -20 -20 -20 -20 -20 -20 -20
-20 -19 -3 -14 -20 -3 -20 -20 -20 -20 -20 -20 -20 -20 -20 -20 -20 -20 -20 -20 -20 -20
-12 -4 -7 -11 4 -19 -20 -20 -20 -20 -20 -20 -20 -20 -20 -20 -20 -20 -20 -20 -20 -20
-9 -16 15 6 -19 -20 -20 -20 -20 -20 -20 -20 -20 -20 -20 -20 -20 -20 -20 -20 -20 -20
-20 -20 -1 -3 -20 -20 -20 -20 -20 -20 -20 -20 -20 -20 -20 -20 -20 -20 -20 -20 -20 -20
-20 -19 -15 -20 -20 -20 -20 -20 -20 -20 -20 -20 -20 -20 -20 -20 -20 -20 -20 -20 -20 -20
-20 -12 -19 -20 -20 -20 -15 4 -0 -20 -20 -20 -20 -20 -20 -20 -20 -11 -20 -20 -20 -20
-20 -20 -17 -20 -6 11 15 3 -20 -20 -20 -20 -20 -20 -20 -20 -20 -20 19 -4 -20 -20
-20 -14 -13 6 8 -2 -17 -20 -20 -20 -20 -20 -20 -20 -20 -20 -20 -20 -2 -19 -20 -20
-11 14 13 -5 -17 -20 -20 -20 -20 -20 -20 -20 -20 -20 -20 -20 -20 -20 -20 -20 -20 -20
3 4 5 -3 -19 -18 -20 -20 -20 -20 -20 -20 -20 -20 -20 -20 -20 -20 -20 -20 -20 -20
11 19 20 7 -5 -20 -20 -20 -20 -20 -20 -20 -20 -20 -20 -20 -20 -20 -20 -20 -20 -20
-19 -9 -7 -20 -20 -20 -20 -20 -20 -20 -20 -20 -20 -20 -20 -20 -20 -20 -20 -20 -20 -20

GFSNIL_prec_radar_060.txt.gz
Reflectivity
-20 -20 -20 -20 14 23 9 18 7 25 -20 -20 -20 -20 -20 -20 -20 -20 -20 -20 -20 -20
-20 -19 -15 -17 -2 -14 32 14 -20 -20 -20 -20 -20 -20 -20 -20 -20 -20 -20 -20 -20 -20
-19 -7 10 5 -16 -0 -9 -8 -20 -20 -20 -20 -20 -20 -20 -20 -20 -20 -20 -20 -20 -20
-20 -20 36 26 7 -20 -14 -19 -17 -20 -20 -20 -20 -20 -20 -20 -20 -20 -20 -20 -20 -20
4 4 37 11 -3 20 -20 -20 -20 -20 -20 -20 -20 -20 -20 -20 -20 -20 -20 -20 -20 -20
28 9 -4 -20 -19 -1 -20 -20 -20 -20 -20 -20 -20 -20 -20 -20 -20 -20 -20 -20 -20 -20
-3 -20 -20 -20 -20 -20 -20 -20 -20 -20 -20 -20 -20 -20 -20 -20 -20 -20 -20 -20 -20 -20
-20 -20 -20 -20 -20 -20 2 -18 -20 -20 -20 -18 -20 -20 -20 -20 -20 -20 -20 -20 -20 -19
-20 -20 -20 -20 -20 -20 -20 -15 -7 -9 -9 -20 -20 -20 -20 -20 -20 -20 -20 -20 -20 -20
-20 -20 -20 1 -20 -20 -20 -20 -20 -20 -20 -20 -20 -20 -20 -20 -20 -20 -20 -20 -20 -20
-20 -19 4 -20 -20 -20 -20 -20 -20 -20 -20 -20 -20 -20 -20 -20 -20 -20 -20 -20 -20 -20
0 -3 -20 -20 -20 -20 -20 -20 -20 -20 -20 -20 -20 -20 -20 -20 -20 -20 -20 -20 -20 -20
-19 -20 -20 -20 -20 -20 -20 -20 -20 -20 -20 -20 -20 -20 -20 -20 -20 -20 -20 -20 -20 -20
-20 -20 -20 -20 -20 -20 -20 -20 -20 -20 -20 -20 -20 -20 -20 -20 -20 -20 -20 -20 -20 -20

GFSNIL_prec_radar_063.txt.gz
Reflectivity
-20 -20 -20 -20 -20 -3 -4 18 0 -7 8 -19 -20 -20 -20 -20 -20 -20 -20 -20 -20 -20
-20 -18 -20 -18 20 1 27 22 29 -10 -1 -20 -20 -20 -20 -20 -20 -20 -20 -20 -20 -20
4 -20 -19 -16 -16 15 10 33 13 -8 1 -20 -20 -20 -20 -20 -20 -20 -20 -20 -20 -20
-20 -20 -20 -20 -14 25 27 10 -20 -20 -20 -20 -20 -20 -20 -20 -20 -20 -20 -20 -20 -20
-20 -20 -20 16 26 0 1 -20 -20 -20 -20 -20 -20 -20 -20 -20 -20 -20 -20 -20 -20 -20
-8 -15 10 9 14 -20 -20 -20 -20 2 -15 -20 -20 -20 -20 -20 -20 -20 -20 -20 -20 -20
10 15 4 -19 -20 -20 -20 -20 -20 -20 -20 -20 -20 -20 -20 -20 -20 -20 -20 -20 -20 -20
-10 -20 -20 -20 -20 -20 -19 -20 -20 -20 -20 -20 -20 -20 -20 -20 -20 -20 -20 -20 -20 -20
-20 -20 -20 -20 -19 -20 -15 -20 -20 -20 -20 -20 -20 -20 -20 -20 -20 -20 -20 -20 -20 -20
-20 -20 -20 -20 -20 -5 -20 -20 -20 -20 -20 -20 -20 -20 -20 -20 -20 -20 -20 -20 -20 -20
-20 -20 -20 -12 -4 -20 -20 -20 -20 -20 -20 -20 -20 -20 -20 -20 -20 -20 -20 -20 -20 -20
-16 -19 13 -10 -19 -20 -20 -20 -20 -20 -20 -20 -20 -20 -20 -20 -20 -20 -20 -20 -20 -20
-16 16 -12 -20 -20 -20 -20 -20 -20 -20 -20 -20 -20 -20 -20 -20 -20 -20 -20 -20 -20 -19
-16 -20 -20 -20 -20 -20 -20 -20 -20 -20 -20 -20 -20 -20 -20 -20 -20 -20 -20 -20 -20 -20

GFSNIL_prec_radar_066.txt.gz
Reflectivity
-20 -20 -20 -20 -20 -20 -20 -20 -11 3 18 27 -7 -2 -20 -20 -20 -20 -20 -20 -20 -20
-20 -20 -20 -20 -20 -17 -20 -20 -20 18 26 12 -15 -20 -20 -20 -20 -20 -20 -20 -20 -20
-20 -20 -20 -20 -20 -20 -20 1 35 20 29 -17 -20 -20 -20 -20 -20 -20 -20 -20 -20 -20
-20 -20 -15 -5 -20 -18 -20 12 9 12 -20 -20 -19 -20 -20 -20 -20 -20 -20 -20 -20 -20
-20 -20 -11 -17 -13 36 29 34 -19 -20 -20 -20 -20 -20 -20 -20 -20 -20 -20 -20 -20 -20
-20 -16 20 -9 31 -12 -17 -20 -20 -7 -20 -20 -20 -20 -20 -20 -20 -20 -20 -20 -20 -20
8 -8 -14 -20 -18 -20 -20 -20 -20 -20 -20 -20 -20 -20 -20 -20 -20 -20 -20 -20 -20 -20
37 -11 -20 8 3 -20 -19 -20 -20 -20 -20 -20 -20 -20 -20 -20 -20 -20 -20 -20 -20 -20
3 -15 2 16 -20 4 -20 -20 -20 -20 -20 -20 -20 -20 -20 -20 -20 -20 -20 -20 -20 -20
-15 10 -4 -20 -20 -18 -20 -20 -20 -20 -20 -20 -20 -20 -20 -20 -20 -20 -20 -20 -20 -20
7 -20 -20 -15 17 -18 -20 -20 -20 -20 -20 -20 -20 -20 -20 -20 -20 -20 -20 -20 -20 -20
-20 -3 -19 -3 -20 -20 -20 -20 -20 -20 -20 -20 -20 -20 -20 -20 -20 -20 -20 -20 -20 -20
-1 -20 -17 -20 -20 -20 -20 -20 -20 -20 -20 -20 -20 -20 -20 -20 -20 -20 -20 -20 -20 -20
-15 -20 -20 -20 -20 -20 -20 -20 -20 -20 -20 -20 -20 -20 -20 -20 -20 -20 -20 -20 -20 -20

GFSNIL_prec_radar_069.txt.gz
Reflectivity
-15 -19 3 -20 -20 -20 -20 -20 -20 -20 -20 13 17 9 -19 -20 -20 -20 -20 -20 -20 -20
-20 -10 -18 -3 -20 -20 -20 -20 -20 -20 -16 22 30 -20 -20 -20 -20 -20 -20 -20 -20 -20
19 -20 -6 -7 -20 -20 -18 -20 -20 -13 19 34 -3 -20 -20 -20 -20 -20 -20 -20 -20 -20
-17 -20 -5 18 20 -9 -12 -20 28 29 -4 -20 -20 -20 -20 -20 -20 -20 -20 -20 -20 -20
-20 24 -3 15 14 -16 -11 29 -18 -19 -20 -20 -20 -20 -20 -20 -20 -20 -20 -20 -20 -20
25 21 19 16 29 25 11 -19 -18 -20 -20 -20 -20 -20 -20 -20 -20 -20 -20 -20 -20 -20
25 11 0 30 29 -1 -15 29 -4 -20 -20 -20 -20 -20 -20 -20 -20 -20 -20 -20 -20 -20
1 13 35 40 19 -20 29 -8 -20 -20 -20 -20 -20 -20 -20 -20 -20 -20 -20 -20 -20 -20
1 37 27 -15 -17 27 -6 -20 2 -20 -20 -20 -20 -20 -20 -20 -20 -20 -20 -20 -20 -20
5 -0 -20 -17 17 -20 -19 -20 -20 -20 -20 -20 -20 -20 -20 -20 -20 -20 -20 -20 -20 -20
-15 -17 -14 5 -19 21 -20 -20 -20 -20 -20 -20 -20 -20 -20 -20 -20 -20 -20 -20 -20 -20
-20 -20 3 7 -14 -20 -20 -20 -20 -20 -20 -20 -20 -20 -20 -20 -20 -20 -20 -20 -20 -20
-11 -20 -20 -20 -20 -20 -20 -20 -20 -20 -20 -20 -20 -20 -20 -20 -20 -20 -20 -20 -20 -20
-20 -20 -20 -20 -20 -20 -20 -20 -20 -20 -20 -20 -20 -20 -20 -20 -20 -20 -20 -20 -20 -20

GFSNIL_prec_radar_072.txt.gz
Reflectivity
-20 -20 -6 -20 20 -20 -20 -20 -20 -20 -20 -20 -20 4 14 14 -3 -6 -20 -20 -20 -20
-2 -20 16 21 20 -20 -20 -20 -20 -20 -20 -20 -18 15 5 -20 -20 -20 -20 -20 -20 -20
-4 -20 -4 22 2 -20 -20 -20 -20 -9 -10 16 32 18 -20 -20 -20 -20 -20 -20 -20 -20
-10 2 23 7 6 -5 -11 -3 19 13 26 28 -20 -20 -20 -20 -20 -20 -20 -20 -20 -20
15 -18 17 25 24 7 11 35 18 23 20 3 -5 -20 -20 -20 -20 -20 -20 -20 -20 -20
-20 -7 21 31 23 21 29 25 29 30 25 12 -20 -20 -20 -20 -20 -20 -20 -20 -20 -20
-2 1 6 15 34 27 31 31 23 27 13 -20 -20 -20 -20 -20 -20 -20 -20 -20 -20 -20
-13 -20 8 21 19 31 32 14 21 11 -19 -20 -20 -20 -20 -20 -20 -20 -20 -20 -20 -20
-20 -20 -7 -18 14 12 -13 21 -20 -20 -20 -20 -20 -20 -20 -20 -20 -20 -20 -20 -20 -20
-20 -18 -2 -20 -20 -20 3 -20 -20 -20 -20 -20 -20 -20 -20 -20 -20 -20 -20 -20 -20 -20
-20 -20 -20 -17 -20 -18 -15 -20 -20 -20 -20 -20 -20 -20 -20 -20 -20 -20 -20 -20 -20 -20
-20 -20 -19 -20 3 -20 -20 -20 -20 -20 -20 -20 -20 -20 -20 -20 -20 -20 -20 -20 -20 -20
-20 -20 -19 -20 -20 -20 -20 -20 -20 -20 -20 -20 -20 -20 -20 -20 -20 -20 -9 -19 -0 -9
-20 -20 -20 -20 -20 -20 -20 -20 -20 -20 -20 -20 -20 -20 -20 -20 -20 -20 -19 -20 -10 3

GFSNIL_prec_radar_075.txt.gz
Reflectivity
-12 -20 -10 -17 -20 8 14 4 -16 -20 -20 -20 -20 -20 -20 -20 -20 -0 -18 -20 -20 -20
2 -3 1 -5 -17 -20 16 17 -20 -20 -20 -20 -20 -20 -20 9 28 -14 -19 -20 -20 -20
-12 -11 -0 -20 -5 5 -6 24 -19 -20 -20 -20 -18 12 29 29 2 -20 5 -20 -20 -20
24 -15 -19 15 3 18 21 20 6 21 -7 17 25 33 25 7 9 10 -16 -20 -20 -20
-19 -18 23 -20 -3 21 25 29 33 35 29 22 18 28 24 12 -6 -19 -20 -20 -20 -20
-20 -19 12 -20 17 14 16 34 33 24 31 30 25 20 11 -2 -20 -20 -20 -20 -20 -20
-15 -1 5 -14 -12 -17 -20 -12 10 29 33 28 13 1 -9 -18 -20 -20 -20 -20 -20 -20
7 10 5 -20 -20 -20 -9 17 23 -17 -10 -10 -20 -20 -20 -20 -20 -20 -20 -20 -20 -20
24 20 17 -20 -20 8 12 3 -2 -6 -20 -20 -20 -20 -20 -20 -20 -20 -20 -20 -20 -20
21 18 8 -20 -20 -8 -11 -16 -20 -20 -20 -20 -20 -20 -20 -20 -20 -20 -20 -20 -20 -20
11 -7 -20 -20 -20 -20 -20 -20 -20 -20 -20 -20 -20 -20 -20 -20 -20 -20 -20 -20 -20 -20
-20 -20 -20 -20 -20 -20 -20 -20 -20 -20 -20 -20 -20 -20 -20 -20 -20 -20 -20 -20 -20 -20
-20 -20 -20 -20 -20 -20 -20 -20 -20 -20 -20 -20 -20 -20 -20 -20 -20 -20 -20 -20 -20 -20
-20 -20 -20 -20 -20 -20 -20 -20 -20 -20 -20 -20 -20 -20 -20 -20 -20 -20 -20 -20 -20 -20

GFSNIL_prec_radar_078.txt.gz
Reflectivity
-20 -20 -20 -20 23 -20 -20 -20 -20 15 -20 12 -20 -20 -20 -20 -20 -20 -20 -18 17 -20
-20 3 -9 6 23 -20 -20 -20 -20 -12 -4 19 -12 12 -5 -20 -20 -20 -10 28 20 6
-14 6 -10 -8 -20 -20 5 -20 -8 -17 8 16 24 20 10 -18 -11 28 29 6 -0 1
-20 2 24 -10 -20 -20 -16 -11 8 15 32 37 39 22 27 28 30 12 11 9 2 13
-20 -19 -1 26 -20 -20 -20 -18 -20 11 29 18 33 26 31 28 31 14 -0 -13 -20 -20
28 -14 -11 -2 -10 -16 -20 -20 -14 -20 -20 -12 4 22 34 17 -17 -13 -12 -20 -20 -20
24 30 -19 -13 -9 7 15 12 5 -20 -20 20 8 -6 -19 -20 -20 -20 -20 -20 -20 -20
14 28 31 15 -8 24 19 2 -20 -10 17 -11 -16 -20 -20 -20 -20 -20 -20 -20 -20 -20
27 -6 26 24 -2 0 -20 -20 11 11 2 1 7 -20 -20 -20 -20 -20 -20 -20 -20 -20
-5 17 -0 1 -10 -20 2 9 2 6 -18 -20 -20 -20 -20 -20 -20 -20 -20 -20 -20 -20
-16 11 -20 -18 7 -15 5 -18 -19 -20 -20 -20 -20 -20 -20 -20 -20 -20 -20 -20 -20 -20
-2 5 15 1 -11 -20 -20 -20 -20 -20 -20 -20 -20 -20 -20 -20 -20 -20 -20 -20 -20 -20
-3 2 -20 -20 -20 -20 -20 -20 -20 -20 -20 -20 -20 -20 -20 -20 -20 -20 -20 -20 -20 -20
-20 -20 -20 -20 -20 -20 -20 -20 -20 -20 -20 -20 -20 -20 -20 -20 -20 -20 -20 -20 -20 -20

GFSNIL_prec_radar_081.txt.gz
Reflectivity
-20 -20 -20 -20 -20 -20 7 -20 -20 -20 -20 -20 -20 -20 -20 -16 29 -15 4 -20 -20 -20
24 -14 -20 -20 -20 -16 -2 -20 -20 -20 -20 -17 -20 13 1 39 37 30 34 3 24 25
-20 -20 -20 -20 -20 -20 2 -20 22 17 -20 -20 -3 9 31 36 40 29 19 29 27 22
-20 -19 -19 -20 -1 -20 17 28 29 21 12 -20 -19 22 -1 10 22 28 23 11 28 16
-20 -20 32 -10 -20 -4 -12 -8 -17 -18 -20 -20 -12 -20 -20 -20 18 18 -20 -19 -19 -20
-20 -20 37 36 36 32 11 -13 12 -2 -16 9 -2 -18 20 19 -4 -10 -20 -20 -20 -20
-20 -20 33 14 -4 28 -9 -12 5 15 29 12 5 7 10 9 7 -18 -20 -20 -20 -20
-20 5 27 29 32 -20 11 0 9 -20 -1 20 -3 2 22 -19 -18 -20 -20 -20 -20 -20
-11 -20 -20 -20 -20 -19 -3 -20 -20 9 21 8 7 16 24 -18 -20 -20 -20 -20 -20 -20
18 -18 -20 -20 2 16 -10 18 11 -12 -9 -4 20 4 -4 -20 -20 -20 -20 -20 -20 -20
4 7 5 8 15 13 23 15 -20 3 12 20 -20 -20 -20 -20 -20 -20 -20 -20 -20 -20
0 -20 -0 -1 8 1 -4 3 2 18 6 -20 -20 -20 -20 -20 -20 -20 -20 -20 -20 -20
-10 -1 15 14 15 7 2 -4 -16 -15 -20 -14 -18 -20 -20 -20 -20 -20 -20 -20 -20 -20
-18 -19 -1 4 8 11 -19 -20 -20 -20 -20 -20 -20 -20 -20 -20 -20 -16 -20 -20 -20 -20

GFSNIL_prec_radar_084.txt.gz
Reflectivity
-20 -20 -20 -20 -20 -20 -20 -20 -20 -20 -20 -20 -20 19 -4 -19 18 -2 38 33 33 31
-20 -20 -20 -20 -20 -20 19 22 -20 -3 23 -20 -20 -20 -20 12 2 28 1 20 36 34
-20 -20 -20 -20 -20 -4 -20 -2 28 28 26 24 0 -20 -20 -20 14 8 11 18 21 10
-20 -20 -20 -20 -20 3 -4 25 27 30 27 22 -4 -20 -20 -20 20 -20 -20 -10 12 6
-20 -20 -20 32 -18 26 31 30 30 27 29 21 -20 -20 -20 -20 -15 -20 -14 12 4 -11
-20 16 -20 -20 -1 28 39 37 22 23 20 -20 -20 -20 -7 -1 14 -14 23 6 3 12
-20 -20 -20 5 22 40 26 -10 -20 19 -20 -0 -20 -20 -20 -5 24 18 31 8 24 -12
-19 3 -11 30 34 -4 -6 25 -20 -20 -20 16 -2 -20 -4 17 6 -11 8 33 -16 -20
-20 -20 -20 29 -20 -20 -6 -9 22 22 15 -20 -11 26 32 26 4 19 3 -20 -20 -20
-9 6 4 2 -16 -6 19 20 21 -5 13 12 2 22 16 19 31 -12 -20 -20 -20 -20
-18 6 -15 12 6 2 3 6 16 20 7 17 32 29 7 30 -14 -20 -20 -19 -20 -20
-15 -20 -20 -20 -3 -12 7 5 4 16 24 6 23 2 26 -5 -20 -19 -20 -20 -20 -20
-20 -20 -11 -7 -1 11 3 13 0 -6 -0 22 9 24 9 2 -20 -20 -20 -20 -20 -20
-20 -20 -20 -13 9 9 10 11 2 -3 17 20 9 -11 3 1 -18 -20 -20 -20 -16 -9

GFSNIL_prec_radar_087.txt.gz
Reflectivity
-20 -20 -20 -20 -20 -20 -20 -20 -20 -20 -20 19 -20 -20 -20 -20 -20 -20 18 -3 8 24
-20 -20 -20 -20 -20 -20 -20 -20 -20 -20 -20 -20 -20 -8 -9 21 25 -8 -18 14 24 -20
-20 -20 -20 -20 -20 -20 -20 -20 -20 -20 -6 -20 -5 -0 18 23 -20 -11 5 -15 30 -20
-20 -20 -20 -20 -20 -15 -5 -12 -20 -20 17 23 25 42 27 -19 -20 -20 -19 -4 -6 -20
-20 -20 -20 -20 -20 -20 -20 -7 29 29 29 39 40 22 33 -19 7 2 -20 -2 -20 -18
-20 -20 -16 -20 -20 11 15 27 36 43 37 39 23 27 23 20 -20 -20 -20 -20 14 8
-3 -20 -12 -15 12 19 18 29 27 24 12 6 18 20 6 -20 -20 -5 -14 2 1 8
-20 7 9 23 -7 -2 1 31 16 -20 -20 -20 17 11 2 -20 -18 13 -2 17 -3 19
-20 19 4 5 21 14 11 11 26 -20 -20 -20 17 23 14 6 -20 18 36 39 20 23
-11 -10 8 -8 -20 20 -1 22 -1 3 -11 14 -7 33 28 20 19 18 14 16 27 20
9 -8 -20 -20 -20 -9 17 -13 -7 13 26 25 34 25 24 23 30 37 34 14 -7 4
-20 9 -15 -20 -19 -20 2 11 14 2 13 26 30 32 25 35 13 -3 7 -17 -20 1
-20 11 -6 -2 2 10 6 19 20 21 22 23 23 28 8 -7 11 8 5 13 -7 -20
-20 -20 -19 6 -20 -2 -7 -10 -7 -11 -3 5 6 12 20 16 34 17 13 4 -16 -16

GFSNIL_prec_radar_090.txt.gz
Reflectivity
-20 -20 -20 -20 -20 -20 -20 -20 -20 -20 -20 -20 -20 -20 -20 -20 17 19 25 -17 -13 -20
-20 -20 -20 -20 -20 -20 -20 -20 -20 -20 -20 -20 -20 -20 -20 -20 8 -16 24 20 17 -18
-20 -20 -20 -20 -20 -20 -20 -20 -20 -20 -20 -20 -7 8 13 11 4 22 26 22 -2 -3
-20 -20 -20 -20 -20 -20 -20 -20 -20 -20 -20 -20 5 3 15 23 29 37 33 17 20 9
-19 -20 -20 -20 -20 -20 -20 -20 -20 15 19 23 29 32 24 19 42 40 31 9 23 7
29 13 -20 -20 -20 -20 -20 -20 17 16 28 27 21 18 27 36 37 22 21 20 24 19
-18 -20 -20 -9 -20 -20 -20 -3 -6 26 38 12 -20 -15 -20 -19 -4 24 26 27 20 18
-20 -20 -20 -20 -20 -5 23 0 21 13 7 24 -20 -20 -20 -20 -19 20 16 9 4 3
-20 -20 -20 -20 12 -11 20 16 -20 23 26 18 2 10 13 -9 -17 2 -11 -19 11 14
-20 2 -4 -10 -10 -20 -20 14 16 1 6 12 14 7 15 18 5 30 25 27 28 23
-7 -0 1 -15 8 18 20 7 6 18 13 17 18 21 23 25 20 36 40 19 16 39
10 15 17 19 15 12 14 26 -5 -1 8 8 16 22 18 5 5 31 30 21 31 23
13 19 17 21 17 14 -4 -12 -2 15 -4 15 14 24 19 19 6 2 19 16 6 16
7 -4 10 13 -2 11 4 14 12 6 -7 6 -0 7 14 19 12 5 6 11 10 13

GFSNIL_prec_radar_093.txt.gz
Reflectivity
-20 -20 -20 -20 -20 -20 -20 -20 -20 -20 -20 -20 -20 -20 -20 -20 -20 -20 -20 -12 -19 21
-20 -20 -20 -20 -20 -20 -20 -20 -20 -20 -20 -20 -20 -20 -20 -20 -20 -20 -20 -20 -20 10
-20 -20 -20 -20 -20 -20 -20 -20 -20 -20 -20 -20 -20 -20 -20 -20 -20 -20 -20 -18 -14 -17
-20 -20 -20 -20 -20 -20 -20 -20 -20 -20 -20 -20 -20 -20 -20 -20 -20 -5 22 25 24 16
-20 -20 -10 -20 -20 -20 -20 -20 -20 -20 -20 -20 -20 -20 -7 25 33 36 36 38 36 34
-20 -19 3 -8 -20 -20 -20 -20 -20 -20 -20 -20 -12 21 40 17 -10 6 3 32 31 25
-20 -20 -20 -19 -20 -1 -20 -20 -20 -20 -20 -20 -20 12 21 -17 -20 -6 -2 12 -20 -14
-20 -20 -20 -20 10 -13 -20 -20 -20 -20 16 -20 -10 -13 -20 13 23 -9 -20 -20 -20 -20
-20 -20 -20 -20 -20 -19 -19 -4 5 -20 -20 -20 -19 17 11 10 6 20 0 -20 -17 10
-20 -20 -20 -20 -18 11 11 -12 -20 -20 -7 9 3 23 18 14 13 8 1 12 23 22
-20 -20 -14 -20 -20 -20 -20 -20 -16 6 15 17 14 19 12 10 8 5 3 23 22 25
-20 -20 -20 12 -0 -9 -9 -2 7 13 13 18 -2 16 3 3 -18 -14 -5 6 16 23
-18 -14 -3 -2 -10 -5 -2 18 15 15 3 -2 6 14 -0 -1 -5 -3 7 10 13 21
17 8 8 15 13 13 15 12 3 -20 -17 -20 3 5 11 12 -6 -4 11 11 8 11

GFSNIL_prec_radar_096.txt.gz
Reflectivity
-20 -20 -20 -13 -20 -20 -20 -20 -20 -20 -20 -20 -20 -20 10 25 -15 -20 -20 -20 -20 -20
-20 -20 -20 -20 -20 -20 -20 -20 -20 -20 -20 -20 -20 14 14 -16 -13 -1 -15 -17 -3 -20
-20 -20 -20 -20 -20 -20 -20 -20 -20 -20 -20 -20 -20 -20 -20 -20 -20 10 3 -6 -8 -3
-20 -20 -20 -20 -20 -20 -20 -20 -20 -20 -20 -20 -20 -20 -3 -20 -20 -20 -20 -20 -7 -18
-20 -20 -20 -20 -20 -20 -20 -20 -20 -20 -20 -20 -20 -20 -20 -20 -20 -20 -14 9 20 7
-20 -20 -20 -20 -20 -20 -20 -20 -20 -20 -20 -20 -20 -20 -20 -20 -20 7 7 0 5 -20
-20 -20 -20 -20 -20 -20 -20 -20 -20 -20 -20 -20 -20 -20 -20 1 -1 6 -7 4 -20 -13
-20 -20 -20 -20 -20 -20 -20 -20 -20 -20 -20 -20 -20 -20 -14 -16 3 14 -17 -3 20 5
-20 -20 -20 -20 -20 -20 -20 -20 -20 -20 -20 -20 -9 18 11 17 5 16 15 10 13 1
-20 -20 -20 -20 -20 -20 -10 -4 -2 -2 7 12 3 21 17 15 12 4 -8 -1 3 11
-20 -20 -20 -20 -5 5 15 1 -20 2 7 12 16 15 17 7 1 0 -8 -20 -12 -13
-4 -17 -19 -20 14 15 22 15 13 15 12 19 4 15 12 9 -19 -20 -20 -19 -15 -7
-20 -20 -1 14 23 22 10 8 17 15 9 18 -12 11 7 3 -20 -20 -20 -15 2 13
-20 2 8 9 5 8 1 -8 -6 1 -1 8 13 -7 -18 -18 -20 -18 -6 1 4 4

GFSNIL_prec_radar_099.txt.gz
Reflectivity
-20 -20 -10 5 13 14 18 7 3 1 12 12 20 -6 -20 -19 -14 -20 -6 18 -16 -20
-20 -20 -20 -20 -3 -16 18 -18 -20 1 -8 -10 -20 -20 -20 -20 -20 -5 -1 -17 -12 4
-20 -20 -20 -20 -20 -0 -3 -20 -20 -20 -20 -20 -20 -20 -20 -20 -20 19 -2 22 -12 16
-20 -20 -20 -20 3 -20 -17 -20 -20 -4 -20 -20 8 -6 -10 -20 -20 -20 -10 -5 13 -20
-20 -20 -20 -20 -20 -20 -19 -20 -20 -20 -20 -20 -20 -20 -15 -20 -20 -20 -11 -20 16 14
-20 -20 -20 -20 -20 -20 -20 -20 -20 -20 -20 -20 -20 -20 -10 -16 -20 -16 8 4 4 -20
-20 -20 -20 -20 -20 -20 -20 -20 -20 -20 -20 -20 -20 -20 -20 -20 4 0 -8 -19 -20 -1
-20 -20 -20 -20 -20 -20 -20 -20 -20 -20 -20 -20 -20 -20 -20 -20 -20 7 14 19 26 23
-20 -20 -20 -20 -20 -20 -20 -20 -20 -20 -9 4 -20 -17 9 5 -20 -10 25 28 25 21
-20 -20 -20 -20 -20 -19 -9 -6 -20 -8 -20 11 -0 9 -4 17 19 23 16 14 7 31
-20 -20 -20 -20 -20 -16 -4 5 -12 -20 -18 -4 12 19 18 17 8 16 11 24 9 12
-20 -20 -20 -20 -20 3 -5 -4 0 8 13 11 17 22 15 16 -5 2 -3 10 13 -7
-20 -20 -20 -20 -17 -5 2 22 24 20 21 26 6 22 14 10 -20 -20 -20 -20 -20 -16
-20 -20 -20 -19 -13 -2 14 19 21 15 16 2 17 10 14 15 5 -20 -20 -20 -20 -20

GFSNIL_prec_radar_105.txt.gz
Reflectivity
-20 -20 -20 -0 9 20 25 29 37 33 30 30 33 27 23 19 21 18 22 20 -15 -16
-20 -20 -20 -20 -11 23 -1 21 25 28 31 31 24 23 25 22 2 4 17 13 21 -15
-20 -20 -20 -20 -18 -19 -20 -19 -1 15 26 21 18 19 13 9 20 8 17 13 -5 -20
-20 -20 -20 -20 -20 -20 -19 -20 -20 -20 -19 3 -16 -18 -5 -13 -13 -20 -16 13 10 -20
-20 -20 -20 -20 -20 -20 -20 -20 -20 -20 -20 -20 -20 -20 -20 -20 -20 -20 -20 -20 -20 -20
-20 -20 -20 -20 -20 -20 -20 -20 -20 -20 -20 -20 -20 -20 -20 -20 -20 -20 -20 -14 3 -20
-20 -20 -20 -20 -20 -20 -20 -20 -20 -20 -20 -4 -20 -20 -20 -20 -19 -15 -13 -5 -13 -20
-20 -20 -20 -20 -20 -20 -20 -20 -20 -20 -20 -20 -20 -19 -20 -20 5 15 -5 -18 -20 -20
-20 -20 -20 -20 -20 -20 -20 -20 -20 -20 -20 -20 -20 11 14 12 -13 -20 -14 6 22 9
-20 -20 -20 -20 -20 -19 -20 -20 -20 13 5 10 -20 15 14 10 6 17 9 -2 -9 22
-20 -20 -20 -20 -20 -16 -8 15 8 9 8 2 11 18 17 20 8 -13 -16 8 18 18
-20 -20 -20 -20 15 19 20 16 17 17 15 14 14 20 13 9 -3 16 27 22 23 19
-20 -20 -20 4 13 1 14 18 11 17 20 33 16 24 20 19 17 18 27 20 26 33
-17 -20 9 16 -3 2 15 19 16 17 12 9 24 26 26 24 9 -6 13 21 17 -20

GFSNIL_prec_radar_108.txt.gz
Reflectivity
-20 -20 -19 -20 16 25 31 34 34 32 26 17 29 30 33 35 34 33 32 29 22 26
-20 -20 -20 -20 10 22 32 34 35 23 31 27 28 28 35 33 32 32 31 30 29 19
-20 -20 -20 -20 -20 6 22 30 30 33 34 34 37 31 29 27 30 30 23 20 18 13
-20 -20 -20 -20 -20 -20 -12 22 31 27 36 30 33 36 30 27 22 16 20 15 13 10
-20 -20 -20 -20 -20 -20 -20 -20 -19 -5 30 32 23 -9 -19 -19 -13 5 8 -11 1 -18
-19 -20 -20 -20 -20 -20 -20 -20 -20 -20 -20 -6 -12 -20 -20 -20 -20 9 -2 -17 -20 -17
-20 -20 -20 -20 -20 -20 -20 -20 -20 -20 -20 -20 -20 -20 -20 -20 -20 -20 -20 -20 -20 -20
-20 -20 -20 -20 -20 -20 -20 -20 -20 -20 -20 -20 -20 -20 -20 -20 -20 -20 -19 -20 -20 -20
-20 -20 -20 -20 -20 -20 -20 -20 -20 -20 -20 -20 -20 6 1 2 -17 -2 1 -20 -20 -20
-20 -20 -20 -20 -20 -20 -20 -20 -20 -20 -14 -20 -19 12 11 12 6 17 17 21 -11 9
-20 -20 -20 -20 -20 -20 -20 -20 -15 5 9 6 9 15 14 15 5 -8 -6 19 31 18
-20 -20 -20 -20 -20 -20 10 16 4 9 -3 -5 -2 15 6 3 4 25 21 17 13 16
-18 -20 -20 -20 -20 -20 -10 -19 -18 -3 -9 12 13 25 16 11 -7 -11 6 18 18 25
12 -7 -16 -20 -1 17 21 10 17 19 11 10 8 16 21 23 9 -1 8 18 27 25

GFSNIL_prec_radar_111.txt.gz
Reflectivity
-20 -20 -20 -20 -20 -20 4 23 39 16 20 20 14 2 24 30 16 26 28 31 29 26
-20 -20 -15 -18 -20 -14 24 28 30 31 32 27 31 28 33 33 29 31 34 35 36 35
-20 -20 -20 -20 -17 10 13 20 17 28 31 24 33 32 38 36 36 36 33 34 36 32
-20 5 -20 -20 -20 9 14 12 24 32 31 34 31 28 37 35 33 30 35 34 31 24
-20 8 -20 -20 -20 -20 -17 6 23 31 33 31 29 36 30 34 36 35 33 36 27 23
-20 -20 -20 -20 -20 -20 -20 -20 2 9 19 30 27 31 35 32 19 -4 10 11 13 13
-20 -20 -20 -20 -20 -20 -20 -20 -17 -7 7 23 17 30 29 -5 -12 -2 -6 4 10 -14
-6 -20 -20 -20 -20 -20 -20 -20 -20 -20 -20 -19 -10 -2 -10 -17 -20 -20 -20 -19 -20 -20
-6 -20 -20 -20 -20 -20 -20 -20 -20 -20 -20 -20 -20 -20 -20 -20 -20 -20 -20 -20 -12 -17
-20 -20 -20 -20 -20 -20 -20 -20 -20 -16 -5 -20 -20 -19 3 5 -20 -20 -19 -16 10 17
-20 -20 -20 -20 -20 -20 -18 8 -20 -8 12 -19 -6 8 9 10 -12 3 9 17 1 13
-20 -20 -20 -20 -20 -20 -20 -19 -18 -20 -20 -20 -9 15 1 -7 -14 5 6 23 13 -8
-18 -19 -20 -20 -20 -16 5 -3 -19 -4 7 22 15 21 21 16 6 7 5 5 17 24
23 15 -12 -20 -17 -5 7 6 3 18 16 14 9 12 21 23 7 10 13 15 17 25

GFSNIL_prec_radar_114.txt.gz
Reflectivity
-20 -20 -20 -20 -20 -20 -6 -12 5 7 6 24 22 -12 16 -19 -3 -15 -20 -20 -20 3
-20 -20 -20 -20 -20 -20 -20 -9 9 14 22 19 16 14 21 26 22 25 24 26 25 24
-16 -11 -20 -20 -20 -20 -20 -20 -3 31 30 38 33 3 21 24 12 25 30 35 36 36
12 11 -20 -20 -20 -20 -20 -20 -5 30 30 32 27 19 28 35 27 31 25 33 34 34
12 3 -12 -20 -20 -13 14 -18 -12 25 31 29 26 36 29 30 34 37 33 31 26 30
16 9 7 -20 -20 -19 -13 10 -15 11 25 31 32 28 32 33 39 38 33 32 32 29
11 11 10 -1 -20 -20 -20 6 13 15 -4 19 32 33 31 39 36 26 29 22 5 17
9 10 13 11 8 6 -15 -19 -10 5 15 16 18 28 27 34 24 32 24 6 24 11
1 7 12 11 9 9 2 -15 -20 -12 -8 17 19 28 29 34 21 21 10 -3 -20 -20
-7 7 9 15 17 22 13 11 15 -5 -8 0 15 24 25 24 18 -10 -19 -20 -20 -20
3 -16 12 14 15 -5 14 15 11 11 16 18 -0 18 8 3 -18 -16 -13 3 2 -19
-20 -20 6 12 12 -2 12 21 0 14 12 4 -15 17 15 9 9 9 5 9 10 14
-8 -20 -20 -12 5 13 -9 13 17 19 5 22 2 14 19 18 9 15 8 5 10 17
-5 -20 -20 -20 -6 5 5 12 14 3 -5 -15 -7 6 16 23 5 2 -11 -1 1 10

GFSNIL_prec_radar_117.txt.gz
Reflectivity
-20 -20 -20 -19 4 6 6 -5 -1 -8 4 32 31 30 16 11 -15 -20 -20 -20 -20 -20
-20 -20 -20 -19 2 13 2 9 25 -12 -8 -7 13 31 28 9 -20 -16 -1 -20 -4 -17
-20 -20 -20 -12 -20 -18 4 12 19 12 18 9 -6 1 3 -6 -5 -16 -18 4 9 13
-20 -20 -20 3 -14 -20 -20 -5 -3 19 27 29 40 22 3 10 -5 -1 -8 -0 16 27
-20 -20 -19 3 2 4 -20 -3 -20 -20 -7 31 40 29 35 33 25 11 -3 25 29 34
-20 -20 -20 -9 -20 0 1 -20 -20 -20 6 18 27 26 25 32 26 33 32 33 30 32
-20 -20 -20 -14 -1 -20 -20 1 -11 -11 9 24 29 33 29 28 34 37 36 38 36 22
-20 -20 -20 -20 14 -20 -20 11 5 6 -6 21 27 32 30 26 28 39 37 35 30 26
-20 -20 -20 -20 -3 -3 -6 11 10 4 5 5 5 25 25 30 36 37 26 26 23 13
-20 -20 -20 -14 4 9 -19 1 -1 6 -10 0 11 20 23 30 30 18 32 38 33 28
-20 -20 -18 -10 3 6 8 5 -15 -2 -0 13 12 14 22 27 28 26 16 25 18 -6
-20 -20 -8 -5 9 7 15 15 13 15 14 4 -1 21 21 14 -6 -2 13 12 -19 -20
-18 -20 -1 5 8 14 8 15 14 -6 3 21 11 21 26 19 17 19 14 1 11 18
-20 -17 9 8 11 10 6 2 17 6 11 16 -9 7 9 20 1 -4 -10 -9 -4 3

GFSNIL_prec_radar_120.txt.gz
Reflectivity
-20 -19 -13 2 6 0 4 1 -20 -4 -1 27 30 31 28 26 16 -4 -19 -20 -20 -20
20 -6 -8 5 11 15 -9 -20 1 0 -4 4 23 32 31 26 21 -11 -19 -19 -20 -20
-0 -4 3 5 13 16 -4 8 -1 24 16 -8 -18 9 34 30 13 16 14 -17 -14 -20
26 28 7 -20 -20 -20 -20 -11 10 15 21 29 16 11 -7 30 31 21 0 10 -20 -20
21 1 8 -5 4 -20 -13 8 6 -6 13 34 18 26 29 -18 3 19 11 -20 -3 -5
13 -0 7 5 8 -20 -20 -12 -7 6 3 2 13 24 38 31 16 -16 -20 -19 18 -7
16 -16 -4 9 -18 -20 -20 -3 -3 3 -7 -20 16 30 28 30 27 21 24 33 30 31
-14 1 6 13 -20 -18 3 1 5 4 -20 -5 -7 21 22 27 34 34 36 38 32 33
6 13 13 12 -20 -7 -20 -6 -3 -2 -20 -20 10 22 32 31 32 33 32 34 32 35
11 11 15 3 -1 -2 -20 -20 -14 -20 -20 -19 -19 3 24 26 23 30 32 33 34 29
10 4 15 4 -6 -20 -20 -17 -7 -4 13 -12 2 -20 -9 11 20 28 14 22 31 30
14 -4 14 -20 -20 -20 -20 -10 -14 -15 -14 -20 -13 17 -3 11 31 29 24 17 27 28
14 -15 7 -13 -20 -20 -18 -18 -20 -20 -19 15 -15 18 16 9 3 20 17 15 24 16
13 9 8 -7 -20 -20 -19 -10 -3 10 -16 2 -7 11 16 14 -12 -20 -20 -20 -10 -6